Location: ?ern� Novina
(50.6762°N, 14.8696°E)
Time: 02:51:25
(UTC+00:00)

Gbstr 26 Del rocket - Pass Details

Date: 03 March 2021
Orbit: 492 x 1264 km, 51.8° (Epoch: 13 April)

Event Time Altitude Azimuth Distance (km) Brightness Sun altitude
Rises 19:55:16 0° 284° (WNW) 2,969 7.6 -29.9°
Reaches altitude 10° 19:57:23 10° 284° (WNW) 2,153 6.7 -30.2°
Enters shadow 20:01:10 55° 278° (W) 930 4.1 -30.7°
